EXPRESS-AT2

Last updated on Sun Jun 21 2026 00:03:06 GMT+0000 (Coordinated Universal Time)

1 39613U 14010B 26171.26029022 .00000073 00000+0 00000+0 0 9996 2 39613 0.0175 318.6576 0000823 346.7956 112.7065 1.00274646 44523
UTC large
Height (km)
Speed (km/s)
/
Latitude / Longitude
Inclination (degrees)
Orbital Period (minutes)
Azimuth
Elevation
Range (km)
Doppler Factor

Next 0 passes for location: London (51.5072 / 0.1276)

No passes found over London.
EXPRESS-AT2